Location: Newark
(13.8117°N, 3.6025°W)
Time: 02:15:47
(UTC+00:00)

Courier 1B - Pass Details

Date: 26 August 2019
Orbit: 962 x 1209 km, 28.3° (Epoch: 15 September)

Event Time Altitude Azimuth Distance (km) Brightness Sun altitude
Rises 19:21:31 0° 302° (WNW) 3,758 12.1 -13.0°
Reaches altitude 10° 19:24:47 10° 315° (NW) 2,769 10.8 -13.8°
Maximum altitude 19:30:10 25° 9° (N) 1,840 9.0 -15.1°
Enters shadow 19:34:54 12° 61° (ENE) 2,551 9.3 -16.2°
